Regional Weather Roundup
Issued by NWS

Home | Current Version | Previous Version | Graphics & Text | Print | Product List | Glossary Off
Versions: 1 2 3 4 5 6 7 8 9 10 11 12 13 14 15 16 17 18 19 20 21 22 23 24 25 26 27 28 29 30 31 32 33 34 35 36 37 38 39 40 41 42 43 44 45 46 47 48 49 50

000
ASUS43 KDMX 290508
RWRIA

WEATHER ROUNDUP FOR IOWA
NATIONAL WEATHER SERVICE DES MOINES IA
1200 AM CDT SUN MAY 29 2016

NOTE: "FAIR" INDICATES FEW OR NO CLOUDS BELOW 12,000 FEET WITH NO
SIGNIFICANT WEATHER AND/OR OBSTRUCTIONS TO VISIBILITY.

* - THESE STATIONS ARE NOT NWS STATIONS...THUS NOT UNDER NWS
QUALITY CONTROL.  THEY ALSO DO NOT REPORT WEATHER SUCH
AS PRECIPITATION OR FOG.

IAZ001>003-012>014-020>022-031>034-043>046-290600-
   NORTHWEST IOWA

CITY           SKY/WX    TMP DP  RH WIND       PRES   REMARKS
CARROLL *      LGT RAIN  61  59  94 W16       29.92R
CHEROKEE *     PTCLDY    61  61 100 W3        29.93R
DENISON *      CLOUDY    63  59  88 W10       29.93R
LE MARS *      CLEAR     61  59  94 W8        29.95R
ORANGE CITY *  CLEAR     61  61 100 W8        29.94R
SHELDON *      PTCLDY    61  61 100 W9        29.92R
SIOUX CITY     PTCLDY    61  57  87 W5        29.96R
SPENCER        CLOUDY    62  59  90 W9        29.91R
STORM LAKE *   DRIZZLE   61  61 100 W12       29.94R
$$

IAZ055>058-069>071-079>083-090>094-290600-
   SOUTHWEST IOWA

CITY           SKY/WX    TMP DP  RH WIND       PRES   REMARKS
ATLANTIC *     CLEAR     61  57  88 W8        29.97R
AUDUBON *      CLEAR     61  57  88 CALM      29.96R
CLARINDA *       N/A     64  59  82 MISG      29.99R
COUNCIL BLFS * CLEAR     61  57  88 NW6       29.98R
CRESTON *      CLEAR     63  57  82 W7        29.98R
HARLAN  *      CLEAR     61  57  88 W8        30.00R
LAMONI         CLEAR     63  59  87 SW9       29.97R
RED OAK *      CLEAR     64  55  72 W6        29.98R
SHENANDOAH *   CLEAR     64  61  88 SW5       29.99R
$$

IAZ047>049-059>061-072>074-084-290600-
   CENTRAL IOWA

CITY           SKY/WX    TMP DP  RH WIND       PRES   REMARKS
AMES           CLOUDY    64  58  80 W15       29.89R
ANKENY *       CLEAR     64  57  77 W12       29.91R
BOONE *        CLOUDY    63  59  88 W13G21    29.88R
CHARITON *     MOCLDY    64  61  88 SW7       29.94S
DES MOINES     CLEAR     63  55  75 SW8       29.92R
GRINNELL*      CLEAR     64  59  82 SW8       29.91S
KNOXVILLE *    PTCLDY    64  59  82 SW10      29.91S
MARSHALLTOWN   CLEAR     64  58  80 SW15      29.87R
NEWTON *       PTCLDY    64  61  88 SW13      29.90S
PELLA *        PTCLDY    64  59  82 SW8       29.93R
PERRY *          N/A     63  59  88 W15       29.92R
$$

IAZ004>006-015-016-023>025-035-036-290600-
   NORTH CENTRAL IOWA

CITY           SKY/WX    TMP DP  RH WIND       PRES   REMARKS
ALGONA *       CLOUDY    63  63 100 NW10      29.88R
CLARION *      CLOUDY    63  61  94 NW7       29.87R
ESTHERVILLE    CLOUDY    61  60  97 W8        29.88R
FORT DODGE *   CLOUDY    63  57  82 W6        29.90R
MASON CITY     PTCLDY    61  60  97 NW6       29.85R
FOREST CITY *  CLOUDY    59  59 100 NW3       29.86R
WEBSTER CITY * MOCLDY    63  61  94 W13       29.86R
IOWA FALLS *     N/A     63  61  94 SW16G24   29.87R
$$

IAZ007>011-017>019-026>030-037>042-050>054-066-290600-
   NORTHEAST IOWA

CITY           SKY/WX    TMP DP  RH WIND       PRES   REMARKS
CEDAR RAPIDS   CLEAR     66  61  84 SW9       29.89R
CHARLES CITY * PTCLDY    63  61  94 SW7       29.85R
CLINTON *      CLOUDY    67  61  81 SW10      29.94R
DECORAH *      PTCLDY    63  61  94 VRB5G12   29.85R
DUBUQUE        PTCLDY    63  59  87 S8        29.92R
MONTICELLO *   PTCLDY    66  61  82 SW9       29.90R
OELWEIN *      PTCLDY    64  61  88 S12       29.87R
WATERLOO       CLEAR     64  57  78 S12       29.84S
$$

IAZ064-065-067-068-078-290600-
   EAST CENTRAL IOWA

CITY           SKY/WX    TMP DP  RH WIND       PRES   REMARKS
DAVENPORT      PTCLDY    66  60  81 S8        29.95R
IOWA CITY      CLOUDY    67  60  78 SW9       29.92R
MT. PLEASANT * CLEAR     68  61  77 SW8       29.95R
MUSCATINE *    CLEAR     68  61  77 SW9       29.94R
QUAD CITIES    CLOUDY    70  59  68 S6        29.94R
$$

IAZ062-063-075>077-085>089-095>099-290600-
   SOUTHEAST IOWA

CITY           SKY/WX    TMP DP  RH WIND       PRES   REMARKS
BURLINGTON     CLOUDY    68  61  78 SW8       29.96R
FAIRFIELD *      N/A    N/A N/A N/A MISG        N/A
FORT MADISON * CLEAR     66  61  82 S6        29.97R
KEOKUK *       CLEAR     66  61  82 S6        29.97R
OSKALOOSA *    MOCLDY    66  59  77 SW13      29.92S
OTTUMWA        CLEAR     67  59  75 SW13      29.92S
WASHINGTON *   CLEAR     66 N/A N/A SW10      29.94R
$$

ABBREVIATIONS USED IN REMARKS
   TC - TEMPERATURES IN CELSIUS
  WCI - WIND CHILL INDEX
   HX - HEAT INDEX
  VSB - VISIBILITY
$$





USA.gov is the U.S. government's official web portal to all federal, state and local government web resources and services.